DW9371 Weather Reports


time (UTC)temp
F
wind
direction
speed
knots
gust
knots
rain 1hr
in
rain 24hr
in
rain mn
in
humidity
%
barometer
mb
20260502190603 51 261 0.0 1.7 0.00 0.27 0.27 100 1010.9
20260502190105 51 261 0.0 1.7 0.00 0.27 0.27 100 1010.9
20260502180604 51 261 0.0 0.0 0.00 0.27 0.27 100 1011.0
20260502170105 51 298 0.0 2.6 0.01 0.27 0.27 100 1011.4
20260502150604 51 140 1.7 4.3 0.14 0.17 0.17 100 1012.2
20260502150105 51 142 1.7 4.3 0.15 0.17 0.17 100 1012.1
20260502140105 51 126 1.7 5.2 0.02 0.02 0.02 100 1014.0
20260502130604 51 52 1.7 2.6 0.00 0.00 0.00 100 1014.1
20260502110605 51 117 2.6 6.1 0.00 0.00 0.00 100 1015.6
20260502110105 51 113 1.7 7.0 0.00 0.00 0.00 100 1015.7
20260502100604 51 87 2.6 7.8 0.00 0.00 0.00 100 1016.6
20260502100105 51 115 1.7 6.1 0.00 0.00 0.00 100 1016.7
20260502090603 51 83 0.9 2.6 0.00 0.00 0.00 100 1017.0
20260502070603 51 266 1.7 2.6 0.00 0.00 0.00 100 1017.7
20260502070104 51 266 0.9 2.6 0.00 0.00 0.00 100 1017.7
20260502060603 51 311 0.0 0.0 0.00 0.00 0.00 100 1017.7
20260502060104 51 311 0.0 1.7 0.00 0.00 0.00 100 1017.7
20260502050603 51 256 0.0 0.0 0.00 0.00 0.00 100 1017.9
20260502050104 51 256 0.0 2.6 0.00 0.00 0.00 100 1017.9
20260502040603 51 256 0.0 0.0 0.00 0.00 0.00 100 1018.0
20260502040104 51 256 0.0 0.0 0.00 0.00 0.00 100 1017.9
20260502030105 51 256 0.0 0.0 0.00 0.00 0.00 100 1018.5
20260502020604 51 256 0.0 0.0 0.00 0.00 0.00 100 1019.0
20260502020108 51 256 0.0 1.7 0.00 0.00 0.00 100 1019.1
20260502010604 51 256 0.0 0.0 0.00 0.00 0.00 100 1019.2
20260502010105 51 256 0.0 0.9 0.00 0.00 0.00 100 1019.3
20260502000604 51 256 0.0 1.7 0.00 0.00 0.00 100 1019.6
20260502000105 51 256 0.9 1.7 0.00 0.00 0.00 100 1019.6
20260501230604 51 256 0.0 0.0 0.00 0.00 0.00 100 1019.8
20260501230105 51 256 0.0 0.0 0.00 0.00 0.00 100 1019.9
20260501220603 51 256 0.0 0.0 0.00 0.00 0.00 100 1020.1
20260501210105 51 256 0.9 2.6 0.00 0.00 0.00 100 1020.0
20260501200604 51 256 0.9 2.6 0.00 0.00 0.00 100 1019.9
20260501200105 51 256 0.9 4.3 0.00 0.00 0.00 100 1019.9